Wind_Speed
2 2 2 3 2 1 2 3 4 3 3 2 1 3 2 5 4 3 3 5 7 8 8 5 3 2 2 3 2 2 2 4 6 6 4 3 2 2 3 3 4 5 6 7 8 9 10 11 12
3 2 0 3 4 8 4 1 6 6 5 5 5 2 5 2 9 10 9 9 8 9 8 9 6 6 4 4 2 2 1 1 4 6 7 5 4 3 2 2 3 4 5 6 7 8 9 10 11
4 2 2 2 2 7 7 4 6 9 2 3 0 8 3 2 10 8 6 6 7 9 8 11 10 10 8 7 6 5 4 3 2 3 5 6 5 5 4 4 3 2 3 4 5 6 7 8 9
4 2 0 2 4 5 3 3 12 0 5 4 4 2 8 10 15 11 9 9 10 11 10 9 11 12 11 10 9 9 8 6 6 6 5 4 5 5 6 5 5 4 4 4 5 6 6 8 9
4 2 2 6 4 8 4 10 9 1 2 2 6 3 10 10 15 14 12 10 11 13 12 10 11 12 12 13 12 11 11 10 9 7 6 7 5 3 5 6 6 6 7 7 6 7 7 7 8
3 2 1 8 2 5 4 10 3 4 2 6 5 1 12 13 17 18 9 10 12 12 12 10 13 13 14 14 14 13 13 12 12 11 10 10 9 9 8 8 7 6 7 9 8 8 9 8 9
3 4 6 10 7 8 6 12 1 10 3 11 11 7 4 14 10 12 8 9 10 14 15 11 12 13 15 16 14 15 16 15 14 14 14 14 13 12 11 12 11 10 9 9 9 9 9 9 10
6 6 3 6 5 3 12 14 12 11 8 12 14 5 7 17 13 14 10 14 14 16 16 14 10 13 14 15 15 16 16 16 16 17 17 17 16 15 15 14 14 14 13 12 11 11 10 10 9
6 5 2 7 7 6 12 11 8 13 10 11 14 13 12 23 24 20 18 18 18 17 17 18 16 12 16 16 14 14 14 15 16 18 19 19 19 18 17 17 16 16 15 13 13 12 11 11 11
7 5 4 10 14 14 14 14 13 15 10 7 10 8 11 16 15 11 15 17 22 19 18 20 20 17 16 18 16 17 17 18 19 19 20 20 21 22 21 18 18 18 16 15 15 14 13 13 11
7 7 8 16 19 18 17 18 16 15 17 11 13 20 24 24 23 24 16 14 19 25 28 19 22 21 20 22 21 20 20 20 21 22 22 20 22 23 22 19 19 19 18 18 16 15 16 15 13
13 9 13 15 18 19 18 19 21 21 22 19 22 27 21 21 21 22 22 19 17 19 28 31 24 24 25 24 25 22 21 20 20 20 21 21 21 22 22 20 19 19 19 18 16 15 18 14 12
15 13 17 20 23 22 21 22 23 25 21 19 23 23 21 17 21 19 20 21 24 22 18 29 30 27 29 29 27 28 24 23 21 21 18 19 21 23 24 22 20 21 20 18 17 17 20 13 10
16 19 21 22 22 22 23 21 20 22 20 19 16 15 14 14 25 27 19 20 23 21 25 23 34 28 29 33 32 30 27 25 24 24 20 20 21 22 24 24 23 20 18 18 17 20 18 17 19
18 26 24 19 16 17 22 26 20 18 17 20 15 12 10 16 24 30 30 28 22 23 23 22 23 29 35 29 37 28 27 28 28 28 21 20 20 19 21 23 23 18 18 17 20 20 21 19 14
22 17 18 13 15 20 22 31 10 10 12 19 13 15 15 19 26 33 35 29 28 25 25 30 33 28 33 31 30 24 31 31 30 28 23 23 21 18 19 20 18 16 18 17 20 21 13 8 8
8 17 16 18 21 16 21 25 19 14 14 20 23 24 18 25 27 36 32 27 28 31 30 29 33 39 38 32 29 26 34 37 33 34 27 26 22 19 19 17 18 19 18 20 22 19 9 14 16
21 25 28 26 24 25 27 32 27 25 29 29 24 22 23 27 31 31 27 27 28 30 32 33 32 33 36 38 35 35 31 33 37 36 40 27 24 21 18 17 19 19 17 20 14 12 14 17 14
24 27 29 32 26 25 29 34 33 32 24 24 25 20 27 27 33 30 27 28 29 29 29 31 33 35 34 35 36 38 35 33 35 36 5 29 25 21 20 16 19 21 21 17 16 11 12 13 11
27 25 29 32 23 23 28 35 32 29 37 33 31 28 32 39 33 27 30 29 29 31 32 31 31 33 33 37 40 42 38 33 32 34 35 36 30 21 22 18 18 18 19 16 14 13 11 12 12
23 25 31 32 33 32 30 42 32 25 20 25 26 33 38 35 27 28 29 25 26 28 29 30 30 31 31 32 38 44 43 35 33 35 39 45 43 24 22 17 17 17 16 16 13 11 11 12 14
32 23 27 31 26 31 24 32 37 33 32 28 29 34 34 29 28 31 28 24 25 25 24 26 27 26 28 31 35 39 44 39 32 31 37 42 33 17 23 19 18 18 16 15 13 12 12 13 15
32 28 25 27 28 32 39 29 38 30 30 27 22 27 27 27 30 27 25 32 27 25 20 22 26 27 25 29 30 34 39 40 34 33 37 36 30 27 22 22 20 18 16 17 15 12 13 15 14
30 30 31 31 29 23 36 33 37 30 23 23 22 24 22 24 21 20 24 26 26 22 18 20 21 25 23 25 25 31 32 37 37 36 35 32 33 32 25 23 20 19 18 16 13 12 13 14 12
16 24 16 11 11 14 22 26 13 10 7 13 17 17 22 23 24 22 24 22 22 21 20 15 16 17 20 25 20 20 25 34 39 35 34 30 30 31 23 23 23 21 20 16 14 13 12 11 8
21 20 15 15 16 21 31 16 26 21 21 19 20 19 15 19 21 22 23 24 24 23 23 19 15 15 17 22 21 16 22 28 37 36 35 33 33 39 21 29 25 24 21 16 13 12 10 8 7
22 26 27 25 32 22 24 30 11 15 5 3 3 6 12 19 19 18 23 27 28 24 24 24 20 17 18 19 22 18 18 21 28 29 32 34 36 29 14 26 30 25 19 15 13 10 9 8 8
23 28 22 19 5 6 7 18 1 13 12 3 9 13 19 22 23 23 27 30 31 34 35 29 29 22 19 20 22 21 19 21 22 29 33 37 30 33 37 15 20 19 17 14 12 10 9 9 8
26 19 18 21 17 5 5 3 6 9 8 12 13 15 22 30 34 35 35 36 33 32 30 24 25 24 18 23 23 21 22 24 27 24 31 28 25 22 26 6 13 15 14 13 12 9 11 9 8
22 22 19 10 8 9 9 5 4 5 5 11 16 18 25 29 32 32 29 28 25 23 23 20 19 20 21 19 26 25 26 20 20 16 22 18 24 27 20 14 18 15 14 13 10 11 10 10 9
Wind_Direction
325 321 18 61 121 41 269 130 90 83 122 308 306 109 169 285 248 277 290 295 286 252 230 228 268 293 344 360 26 12 35 29 32 30 16 359 353 0 2 2 356 358 358 7 15 17 16 13 13
340 295 301 57 56 269 102 98 113 170 199 219 359 47 1 286 283 257 274 283 277 256 243 244 257 272 278 302 304 270 256 49 26 21 21 18 4 349 356 4 344 346 355 360 8 11 9 6 4
343 334 272 105 21 314 46 76 182 228 319 135 41 339 253 351 286 284 298 281 275 261 252 242 254 258 261 263 256 258 251 273 331 16 27 25 12 2 357 1 346 342 347 354 355 358 0 357 356
342 333 351 202 274 321 236 235 233 126 298 276 225 242 268 276 288 300 307 290 269 269 262 264 270 274 272 268 263 258 254 252 276 313 339 5 15 6 349 336 346 342 331 327 330 344 351 345 346
329 321 91 289 280 262 298 258 273 242 234 242 247 29 278 263 279 287 295 286 270 261 259 261 267 272 271 267 264 261 259 258 260 271 292 314 319 328 342 336 333 320 319 313 316 326 329 331 334
303 345 226 289 20 312 299 274 296 326 271 275 267 244 281 279 273 279 280 283 285 279 272 262 269 268 265 262 263 262 258 259 259 269 280 287 297 306 314 313 313 311 302 300 303 311 320 323 327
266 233 262 300 299 298 251 253 265 225 211 252 233 221 268 270 282 284 286 287 290 284 282 275 272 267 266 264 262 264 263 260 258 262 266 275 280 285 290 296 302 304 302 292 295 303 311 309 314
289 286 289 293 278 277 268 277 289 264 218 230 256 182 267 277 288 291 284 282 283 277 278 280 272 273 269 266 262 261 263 265 265 266 267 267 269 274 280 284 290 295 297 296 295 295 294 296 300
283 270 287 296 265 233 291 280 302 288 265 258 261 239 247 281 273 276 278 279 279 278 272 267 270 260 265 259 255 257 261 265 267 267 268 269 271 270 270 274 279 282 287 294 290 287 292 292 293
280 259 281 262 248 248 260 283 270 273 277 253 276 280 263 262 274 283 298 303 304 291 276 270 264 261 252 251 250 261 268 268 264 263 266 268 269 266 265 265 270 274 279 288 286 285 285 283 288
279 264 259 262 266 274 277 276 273 269 274 269 256 235 231 253 277 283 267 271 289 296 296 279 268 259 252 257 261 265 272 273 267 262 260 259 263 267 268 262 256 265 274 283 279 278 277 280 286
289 302 282 282 282 295 290 285 281 276 277 276 264 271 280 273 271 266 265 244 235 268 287 287 278 265 258 254 265 263 270 275 270 263 263 261 258 266 271 275 263 262 274 277 272 272 272 275 275
304 302 286 293 295 297 288 284 282 282 287 272 277 285 289 293 276 273 266 262 254 232 259 281 281 281 260 251 257 266 272 277 271 266 266 265 262 262 261 268 265 265 269 268 266 267 270 270 266
285 294 295 293 292 293 294 292 286 299 281 282 272 281 302 302 285 287 280 255 246 243 230 271 271 270 271 253 251 258 266 270 263 266 266 259 257 259 261 263 263 257 259 261 260 263 267 258 253
298 299 299 308 292 270 277 286 302 310 279 273 275 275 258 282 278 280 275 269 263 251 228 224 263 272 271 256 249 247 255 264 260 266 265 266 266 262 257 258 262 257 252 253 253 255 262 259 201
304 309 300 313 311 288 293 297 312 278 245 264 255 264 286 255 262 267 276 276 268 258 246 234 231 239 260 262 246 248 254 255 255 257 264 264 266 276 263 257 260 252 247 250 258 263 261 201 233
311 279 292 293 307 295 293 291 279 261 271 280 278 280 271 252 255 261 272 271 265 263 257 245 240 243 256 265 268 266 254 257 253 248 256 258 259 265 268 258 253 253 250 250 261 242 219 255 275
302 297 287 291 276 279 289 285 290 284 277 279 267 264 257 254 258 263 266 270 269 268 265 263 253 249 247 253 259 262 255 258 251 228 253 248 254 261 265 258 247 247 252 232 265 248 247 256 263
275 281 285 289 289 283 278 277 275 276 270 270 273 254 247 244 255 268 271 268 270 269 267 262 259 256 252 251 251 258 260 266 262 271 188 238 250 254 262 266 253 244 248 266 263 252 242 257 273
286 290 288 294 290 282 280 280 284 280 281 270 257 243 240 248 262 261 267 273 273 271 272 270 266 262 255 251 251 254 258 260 256 252 251 249 242 242 250 260 255 242 246 247 244 239 245 263 273
280 284 289 289 293 282 284 281 289 290 269 249 234 240 245 252 253 262 265 270 284 283 281 279 277 271 264 253 252 252 255 256 250 246 247 238 230 234 243 252 255 245 238 233 227 237 253 264 277
282 287 287 289 291 285 284 289 285 280 279 261 244 234 237 240 255 256 257 287 289 279 279 283 281 276 266 257 250 252 252 252 255 254 252 260 286 241 245 245 245 239 223 223 232 241 256 267 274
282 288 285 286 287 290 281 277 281 284 278 242 214 227 236 240 247 251 269 289 279 269 282 287 286 285 277 261 252 249 250 248 250 252 255 258 259 224 234 241 241 234 215 217 228 241 256 269 272
281 288 287 285 280 269 276 272 280 283 280 220 205 223 235 236 242 254 273 279 265 271 288 292 289 291 291 268 254 246 250 248 241 247 252 249 244 226 225 229 235 225 214 224 233 246 261 272 278
290 286 282 278 260 266 292 300 318 290 251 183 185 213 235 248 251 257 263 262 267 277 284 289 292 292 296 286 258 249 249 245 237 241 249 260 240 250 204 230 229 223 214 217 234 249 265 274 265
297 294 282 289 287 285 287 274 288 273 264 230 220 231 254 263 256 265 271 268 273 283 286 285 294 280 288 279 266 249 252 239 237 239 246 248 246 247 217 226 228 218 215 217 232 251 270 260 250
300 288 286 297 286 289 273 270 263 245 179 80 20 308 295 283 290 288 282 278 285 287 289 279 288 282 273 276 267 246 245 236 236 236 246 246 244 222 194 201 210 207 210 221 231 253 255 230 229
287 292 297 283 290 270 273 280 360 190 179 352 328 330 312 311 312 296 290 290 291 297 299 287 287 283 262 267 271 259 250 242 236 236 236 235 252 268 278 203 183 198 204 219 227 240 230 213 215
304 275 275 281 269 256 292 265 247 208 356 333 339 319 317 318 315 305 306 303 299 292 295 289 277 271 261 254 258 259 252 233 241 252 252 243 244 249 264 257 185 201 211 219 225 234 215 204 204
271 272 279 271 274 281 293 279 194 157 283 341 329 334 322 313 308 311 306 303 303 301 295 292 267 253 254 255 252 254 260 249 234 237 238 232 259 264 260 283 201 206 216 217 221 208 203 198 196
Height
3145 3145 3145 3145 3150 3146 3145 3147 3147 3149 3151 3149 3149 3149 3151 3150 3149 3153 3149 3149 3150 3150 3150 3150 3150 3150 3151 3150 3150 3150 3150 3150 3149 3149 3148 3148 3148 3148 3148 3148 3148 3148 3148 3148 3147 3146 3145 3144 3143
3144 3144 3145 3145 3147 3146 3147 3146 3148 3148 3148 3149 3149 3150 3151 3149 3148 3148 3149 3148 3148 3149 3150 3151 3150 3150 3150 3150 3150 3150 3149 3148 3148 3148 3148 3148 3148 3147 3147 3147 3148 3148 3148 3148 3147 3147 3146 3145 3144
3142 3143 3145 3145 3146 3147 3148 3148 3147 3147 3148 3149 3150 3150 3151 3149 3146 3148 3148 3148 3148 3147 3149 3148 3148 3148 3148 3148 3149 3149 3148 3148 3148 3147 3147 3147 3147 3147 3147 3147 3147 3147 3147 3147 3147 3146 3145 3145 3143
3142 3143 3146 3146 3146 3147 3148 3147 3147 3148 3149 3148 3150 3151 3148 3148 3146 3147 3147 3147 3146 3146 3148 3148 3147 3147 3148 3148 3148 3148 3147 3147 3147 3148 3147 3146 3147 3147 3147 3147 3147 3146 3146 3146 3146 3145 3145 3144 3143
3143 3144 3144 3146 3146 3147 3147 3145 3146 3146 3148 3149 3149 3150 3145 3146 3145 3145 3144 3144 3144 3143 3145 3145 3145 3146 3146 3146 3146 3146 3146 3146 3146 3146 3146 3147 3146 3146 3146 3147 3146 3146 3146 3146 3146 3145 3144 3144 3143
3142 3143 3145 3145 3146 3145 3146 3144 3145 3146 3148 3149 3149 3149 3145 3143 3143 3144 3144 3144 3142 3142 3142 3143 3143 3143 3143 3143 3143 3143 3143 3144 3145 3145 3145 3146 3145 3145 3146 3146 3145 3144 3144 3145 3145 3145 3144 3143 3143
3141 3142 3143 3144 3144 3145 3144 3142 3144 3144 3146 3145 3146 3148 3146 3140 3141 3143 3143 3143 3143 3141 3139 3142 3141 3140 3140 3141 3140 3140 3140 3141 3141 3142 3142 3143 3144 3144 3144 3144 3144 3143 3143 3143 3143 3143 3143 3143 3142
3141 3142 3142 3143 3144 3144 3141 3142 3141 3142 3142 3143 3144 3146 3144 3139 3141 3142 3142 3141 3140 3139 3138 3138 3139 3137 3137 3138 3138 3138 3138 3138 3139 3139 3140 3140 3140 3141 3141 3142 3142 3142 3142 3142 3142 3142 3142 3142 3141
3139 3141 3141 3142 3141 3142 3140 3140 3140 3139 3140 3140 3141 3142 3142 3137 3139 3139 3139 3138 3137 3136 3135 3134 3134 3135 3135 3134 3134 3134 3134 3135 3136 3136 3137 3137 3138 3138 3139 3139 3139 3140 3140 3139 3140 3141 3140 3140 3140
3137 3138 3139 3138 3138 3138 3137 3137 3137 3137 3136 3138 3138 3139 3139 3135 3134 3135 3134 3134 3131 3132 3133 3131 3130 3129 3130 3130 3132 3131 3132 3131 3131 3132 3132 3133 3134 3134 3135 3136 3137 3137 3138 3138 3138 3138 3138 3138 3138
3135 3136 3136 3135 3134 3134 3134 3133 3133 3132 3132 3133 3133 3132 3131 3131 3132 3132 3132 3133 3131 3127 3126 3128 3127 3126 3126 3127 3129 3129 3129 3128 3127 3127 3127 3129 3128 3128 3129 3132 3133 3134 3134 3135 3135 3136 3135 3135 3137
3134 3133 3133 3132 3131 3130 3130 3129 3128 3127 3127 3127 3127 3125 3127 3127 3126 3125 3126 3127 3129 3128 3122 3121 3123 3123 3123 3123 3122 3125 3125 3125 3125 3123 3122 3123 3123 3123 3123 3126 3128 3129 3130 3131 3132 3133 3132 3133 3134
3131 3129 3129 3128 3127 3125 3124 3124 3121 3120 3122 3122 3121 3120 3121 3119 3118 3120 3120 3121 3121 3122 3120 3117 3118 3120 3119 3116 3117 3117 3120 3119 3120 3120 3116 3118 3119 3120 3119 3121 3124 3125 3126 3127 3128 3129 3128 3131 3131
3129 3127 3125 3124 3122 3120 3118 3117 3117 3117 3115 3116 3116 3117 3116 3116 3112 3112 3114 3114 3114 3115 3117 3112 3111 3114 3112 3111 3108 3109 3112 3113 3113 3115 3114 3110 3112 3115 3116 3117 3119 3120 3122 3123 3124 3125 3125 3125 3126
3124 3122 3120 3118 3117 3118 3115 3114 3113 3112 3111 3110 3111 3112 3114 3114 3109 3105 3103 3105 3108 3108 3107 3109 3104 3106 3104 3107 3111 3100 3104 3106 3106 3109 3112 3109 3109 3109 3108 3110 3114 3116 3116 3119 3120 3121 3121 3121 3122
3121 3120 3116 3115 3116 3114 3113 3109 3112 3109 3109 3107 3108 3108 3108 3108 3103 3099 3097 3099 3099 3102 3103 3102 3099 3097 3098 3092 3096 3093 3100 3101 3102 3103 3104 3104 3105 3107 3107 3104 3108 3110 3112 3115 3116 3119 3119 3113 3119
3121 3118 3119 3119 3115 3112 3109 3106 3110 3110 3107 3106 3106 3105 3104 3099 3095 3092 3092 3092 3091 3091 3093 3094 3095 3093 3091 3089 3089 3092 3097 3097 3097 3095 3095 3097 3101 3102 3105 3102 3102 3105 3109 3111 3112 3113 3109 3118 3119
3118 3115 3113 3112 3114 3110 3106 3100 3101 3102 3100 3099 3099 3098 3095 3090 3086 3084 3086 3085 3085 3085 3086 3086 3088 3088 3088 3089 3088 3088 3091 3092 3091 3059 3079 3089 3095 3097 3101 3098 3098 3101 3104 3107 3108 3112 3113 3114 3116
3114 3111 3107 3106 3106 3104 3099 3092 3092 3093 3092 3091 3091 3092 3086 3083 3080 3077 3078 3078 3078 3079 3079 3078 3078 3079 3080 3081 3082 3081 3082 3084 3084 3077 3054 3085 3090 3091 3096 3093 3094 3098 3100 3103 3104 3106 3109 3110 3111
3108 3106 3102 3098 3101 3099 3092 3084 3085 3085 3081 3083 3083 3080 3078 3075 3076 3072 3070 3071 3071 3069 3071 3071 3071 3071 3072 3072 3073 3072 3074 3078 3080 3083 3084 3081 3081 3083 3085 3087 3089 3093 3096 3098 3101 3103 3106 3106 3107
3103 3103 3098 3095 3093 3090 3087 3072 3076 3077 3071 3071 3071 3070 3070 3070 3069 3067 3066 3064 3064 3063 3063 3061 3063 3064 3063 3064 3064 3066 3066 3070 3072 3076 3078 3069 3046 3076 3073 3082 3083 3087 3092 3094 3096 3099 3101 3103 3103
3092 3096 3092 3088 3087 3081 3086 3064 3069 3071 3069 3065 3062 3061 3061 3063 3062 3060 3061 3060 3059 3059 3057 3056 3055 3056 3055 3055 3056 3057 3059 3063 3067 3069 3068 3061 3051 3063 3072 3077 3080 3081 3087 3090 3093 3096 3097 3099 3099
3090 3089 3086 3083 3080 3078 3071 3074 3058 3066 3065 3059 3053 3052 3055 3055 3056 3055 3056 3055 3055 3055 3054 3050 3049 3049 3048 3047 3048 3049 3051 3055 3062 3061 3061 3062 3064 3063 3070 3074 3076 3079 3083 3086 3089 3092 3093 3094 3096
3087 3082 3079 3076 3075 3069 3066 3068 3056 3058 3054 3051 3048 3049 3050 3050 3049 3050 3050 3050 3051 3049 3049 3046 3044 3044 3043 3040 3041 3042 3044 3049 3055 3057 3057 3060 3060 3055 3062 3068 3072 3078 3078 3082 3086 3088 3089 3090 3091
3084 3082 3074 3068 3066 3059 3061 3058 3053 3053 3051 3049 3044 3044 3045 3045 3043 3044 3045 3045 3046 3045 3044 3043 3040 3040 3038 3036 3034 3035 3037 3042 3046 3050 3053 3055 3055 3055 3048 3063 3065 3072 3075 3077 3082 3084 3085 3086 3087
3082 3083 3080 3070 3065 3057 3058 3051 3051 3050 3048 3045 3044 3040 3040 3039 3039 3040 3040 3040 3040 3040 3039 3039 3037 3035 3033 3032 3030 3030 3033 3036 3040 3045 3049 3052 3048 3046 3050 3057 3061 3067 3071 3074 3078 3080 3081 3082 3084
3078 3077 3075 3066 3060 3055 3051 3048 3045 3042 3043 3044 3045 3042 3040 3036 3035 3035 3035 3033 3034 3035 3033 3034 3033 3031 3029 3029 3029 3028 3030 3033 3036 3041 3043 3042 3045 3031 3020 3044 3054 3062 3066 3070 3073 3076 3078 3079 3081
3076 3072 3067 3064 3059 3051 3044 3041 3042 3039 3038 3042 3041 3036 3035 3032 3030 3029 3029 3028 3028 3026 3026 3028 3027 3026 3026 3025 3026 3027 3027 3029 3033 3035 3035 3039 3043 3043 3038 3041 3042 3059 3061 3067 3070 3073 3075 3077 3080
3068 3066 3065 3062 3058 3052 3048 3042 3038 3037 3035 3038 3034 3035 3032 3026 3023 3022 3023 3022 3022 3020 3019 3019 3019 3020 3020 3021 3020 3021 3023 3025 3027 3030 3033 3034 3040 3042 3043 3045 3047 3057 3059 3064 3067 3070 3073 3076 3079
3061 3061 3060 3059 3054 3051 3049 3043 3039 3038 3038 3037 3033 3031 3027 3023 3019 3018 3017 3015 3014 3013 3013 3012 3011 3013 3013 3014 3014 3016 3018 3019 3023 3025 3028 3032 3036 3038 3039 3048 3050 3052 3057 3062 3065 3068 3072 3075 3078